User: anonymous   Login
Location: Unspecified
(0.0000°N, 0.0000°E)
Time: 23:49:29
(UTC+00:00)
Language:

STARLINK-3172 - Orbit

View from above orbital plane
View from above orbital plane
View from above satellite
View from above satellite

Ground track
Ground track

The orbit is defined by the following mean orbital elements,

1 51139U          26145.48236600 +.00000000 +00000-0 -19902-3 0 00004
2 51139  53.2135 314.3937 0001334  86.4577 273.6568 15.08846418    00
Epoch (UTC): 25 May 2026 11:34:36
Eccentricity: 0.0001334
inclination: 53.2135°
perigee height: 539 km
apogee height: 541 km
right ascension of ascending node: 314.3937°
argument of perigee: 86.4577°
revolutions per day: 15.08846418
mean anomaly at epoch: 273.6568°

The dashed part of the orbit path shows where the satellite is in the earth's shadow,  

DLR